Hourly Weather Kozlovskiy

Today, 24 October, Saturday

Time Temperature Precipitation Wind Pressure Humidity
00:00 -8°C° 0 mm 2 mps 738 mmHg 84%
01:00 -8°C° 0 mm 2 mps 738 mmHg 84%
02:00 -7°C° 0 mm 2 mps 737 mmHg 83%
03:00 -8°C° 0 mm 3 mps 737 mmHg 81%
04:00 -8°C° 0 mm 3 mps 736 mmHg 80%
05:00 -8°C° 0 mm 4 mps 735 mmHg 77%
06:00 -8°C° 0 mm 4 mps 735 mmHg 74%
07:00 -7°C° 0 mm 4 mps 734 mmHg 71%
08:00 -7°C° 0.1 mm 5 mps 733 mmHg 76%
09:00 -6°C° 0.1 mm 5 mps 733 mmHg 81%
10:00 -5°C° 0.1 mm 5 mps 732 mmHg 87%
11:00 -5°C° 0.1 mm 5 mps 731 mmHg 88%
12:00 -4°C° 0.1 mm 5 mps 730 mmHg 89%
13:00 -2°C° 0.1 mm 5 mps 730 mmHg 90%
14:00 -2°C° 0.4 mm 4 mps 729 mmHg 92%
15:00 -2°C° 0.4 mm 4 mps 728 mmHg 93%
16:00 -1°C° 0.4 mm 3 mps 728 mmHg 95%
17:00 -1°C° 0.3 mm 3 mps 727 mmHg 96%
18:00 +1°C° 0.3 mm 2 mps 727 mmHg 97%
19:00 +2°C° 0.3 mm 1 mps 726 mmHg 98%
20:00 +2°C° 0.2 mm 1 mps 726 mmHg 98%
21:00 +2°C° 0.2 mm 1 mps 726 mmHg 98%
22:00 +3°C° 0.2 mm 1 mps 726 mmHg 98%
23:00 +2°C° 0 mm 2 mps 727 mmHg 97%

Tomorrow, 25 October, Sunday

Time Temperature Precipitation Wind Pressure Humidity
00:00 +2°C° 0 mm 2 mps 727 mmHg 96%
01:00 +2°C° 0 mm 3 mps 727 mmHg 96%
02:00 +2°C° 0 mm 3 mps 727 mmHg 96%
03:00 +2°C° 0 mm 3 mps 728 mmHg 96%
04:00 +3°C° 0 mm 2 mps 728 mmHg 95%
05:00 +3°C° 0 mm 2 mps 728 mmHg 95%
06:00 +3°C° 0 mm 2 mps 729 mmHg 95%
07:00 +2°C° 0 mm 3 mps 729 mmHg 95%
08:00 +3°C° 0 mm 3 mps 729 mmHg 94%
09:00 +3°C° 0 mm 3 mps 730 mmHg 92%
10:00 +3°C° 0 mm 4 mps 730 mmHg 90%
11:00 +3°C° 0 mm 4 mps 730 mmHg 87%
12:00 +3°C° 0 mm 4 mps 730 mmHg 85%
13:00 +3°C° 0 mm 4 mps 730 mmHg 82%
14:00 +2°C° 0 mm 3 mps 730 mmHg 85%
15:00 +1°C° 0 mm 3 mps 730 mmHg 87%
16:00 +2°C° 0 mm 2 mps 730 mmHg 90%
17:00 +2°C° 0 mm 1 mps 730 mmHg 91%
18:00 +2°C° 0 mm 1 mps 730 mmHg 92%
19:00 +1°C° 0 mm 1 mps 730 mmHg 93%
20:00 +1°C° 0.1 mm 1 mps 729 mmHg 94%
21:00 +1°C° 0.1 mm 1 mps 729 mmHg 95%
22:00 0°C° 0.1 mm 0 mps 729 mmHg 95%
23:00 0°C° 0.3 mm 0 mps 728 mmHg 96%

Day after tomorrow, 26 October, Monday

Time Temperature Precipitation Wind Pressure Humidity
00:00 +1°C° 0.3 mm 1 mps 728 mmHg 97%
01:00 +1°C° 0.3 mm 1 mps 728 mmHg 99%
02:00 +1°C° 0.3 mm 1 mps 727 mmHg 98%
03:00 +1°C° 0.3 mm 1 mps 727 mmHg 98%
04:00 +1°C° 0.3 mm 1 mps 727 mmHg 98%
05:00 +1°C° 0.2 mm 1 mps 727 mmHg 97%
06:00 +1°C° 0.2 mm 1 mps 727 mmHg 97%
07:00 -1°C° 0.2 mm 2 mps 727 mmHg 96%
08:00 -1°C° 0 mm 2 mps 727 mmHg 93%
09:00 0°C° 0 mm 3 mps 727 mmHg 90%
10:00 0°C° 0 mm 3 mps 727 mmHg 87%
11:00 0°C° 0 mm 3 mps 727 mmHg 86%
12:00 -1°C° 0 mm 4 mps 728 mmHg 85%
13:00 -1°C° 0 mm 4 mps 728 mmHg 84%
14:00 -1°C° 0.1 mm 4 mps 728 mmHg 86%
15:00 -2°C° 0.1 mm 4 mps 729 mmHg 87%
16:00 -2°C° 0.1 mm 4 mps 729 mmHg 88%
17:00 -3°C° 0.1 mm 4 mps 729 mmHg 89%
18:00 -3°C° 0.1 mm 4 mps 730 mmHg 90%
19:00 -4°C° 0.1 mm 4 mps 730 mmHg 90%
20:00 -5°C° 0.2 mm 5 mps 730 mmHg 91%
21:00 -5°C° 0.2 mm 5 mps 731 mmHg 92%
22:00 -5°C° 0.2 mm 5 mps 731 mmHg 92%
23:00 -5°C° 0.1 mm 5 mps 731 mmHg 91%

27 October, Tuesday

Time Temperature Precipitation Wind Pressure Humidity
00:00 -5°C° 0.1 mm 6 mps 732 mmHg 89%
01:00 -5°C° 0.1 mm 6 mps 733 mmHg 87%
02:00 -6°C° 0 mm 6 mps 733 mmHg 87%
03:00 -6°C° 0 mm 6 mps 734 mmHg 87%
04:00 -8°C° 0 mm 6 mps 734 mmHg 87%
05:00 -8°C° 0 mm 6 mps 735 mmHg 86%
06:00 -8°C° 0 mm 6 mps 736 mmHg 86%
07:00 -9°C° 0 mm 6 mps 736 mmHg 85%
08:00 -8°C° 0 mm 6 mps 737 mmHg 84%
09:00 -8°C° 0 mm 6 mps 737 mmHg 82%
10:00 -8°C° 0 mm 6 mps 738 mmHg 81%
11:00 -8°C° 0 mm 6 mps 738 mmHg 80%
12:00 -8°C° 0 mm 6 mps 739 mmHg 79%
13:00 -6°C° 0 mm 6 mps 739 mmHg 78%
14:00 -8°C° 0 mm 6 mps 740 mmHg 79%
15:00 -8°C° 0 mm 6 mps 740 mmHg 80%
16:00 -8°C° 0 mm 5 mps 741 mmHg 81%
17:00 -8°C° 0 mm 5 mps 742 mmHg 82%
18:00 -8°C° 0 mm 5 mps 742 mmHg 83%
19:00 -8°C° 0 mm 5 mps 743 mmHg 84%
20:00 -10°C° 0 mm 5 mps 743 mmHg 84%
21:00 -9°C° 0 mm 4 mps 744 mmHg 84%
22:00 -9°C° 0 mm 4 mps 744 mmHg 85%
23:00 -10°C° 0 mm 4 mps 745 mmHg 84%

28 October, Wednesday

Time Temperature Precipitation Wind Pressure Humidity
00:00 -10°C° 0 mm 4 mps 745 mmHg 84%
01:00 -10°C° 0 mm 4 mps 745 mmHg 84%
02:00 -10°C° 0 mm 4 mps 746 mmHg 83%
03:00 -11°C° 0 mm 4 mps 746 mmHg 83%
04:00 -10°C° 0 mm 3 mps 747 mmHg 82%
05:00 -10°C° 0 mm 3 mps 747 mmHg 82%
06:00 -10°C° 0 mm 3 mps 748 mmHg 81%
07:00 -10°C° 0 mm 3 mps 748 mmHg 81%
08:00 -10°C° 0 mm 3 mps 748 mmHg 75%
09:00 -9°C° 0 mm 3 mps 748 mmHg 70%
10:00 -8°C° 0 mm 3 mps 749 mmHg 65%
11:00 -6°C° 0 mm 2 mps 749 mmHg 61%
12:00 -5°C° 0 mm 2 mps 749 mmHg 56%
13:00 -4°C° 0 mm 2 mps 749 mmHg 52%
14:00 -4°C° 0 mm 2 mps 749 mmHg 57%
15:00 -2°C° 0 mm 1 mps 749 mmHg 63%
16:00 -3°C° 0 mm 1 mps 749 mmHg 68%
17:00 -3°C° 0 mm 1 mps 749 mmHg 73%
18:00 -5°C° 0 mm 2 mps 748 mmHg 78%
19:00 -6°C° 0 mm 2 mps 748 mmHg 84%
20:00 -5°C° 0 mm 2 mps 748 mmHg 85%
21:00 -5°C° 0 mm 2 mps 748 mmHg 87%
22:00 -6°C° 0 mm 3 mps 747 mmHg 89%
23:00 -5°C° 0 mm 3 mps 747 mmHg 86%

29 October, Thursday

Time Temperature Precipitation Wind Pressure Humidity
00:00 -5°C° 0 mm 3 mps 746 mmHg 84%
01:00 -4°C° 0 mm 4 mps 746 mmHg 82%
02:00 -4°C° 0 mm 4 mps 745 mmHg 79%
03:00 -3°C° 0 mm 4 mps 744 mmHg 77%
04:00 -4°C° 0 mm 5 mps 743 mmHg 74%
05:00 -2°C° 0 mm 5 mps 743 mmHg 72%
06:00 -3°C° 0 mm 6 mps 742 mmHg 71%
07:00 -3°C° 0 mm 6 mps 742 mmHg 69%
08:00 -3°C° 0.1 mm 6 mps 741 mmHg 72%
09:00 -3°C° 0.1 mm 6 mps 741 mmHg 75%
10:00 -2°C° 0.1 mm 7 mps 741 mmHg 78%
11:00 -2°C° 0 mm 7 mps 741 mmHg 79%
12:00 -1°C° 0 mm 7 mps 741 mmHg 80%
13:00 -1°C° 0 mm 7 mps 742 mmHg 81%
14:00 -1°C° 0 mm 6 mps 742 mmHg 82%
15:00 -1°C° 0 mm 6 mps 742 mmHg 83%
16:00 -1°C° 0 mm 6 mps 743 mmHg 85%
17:00 0°C° 0 mm 5 mps 743 mmHg 86%
18:00 0°C° 0 mm 5 mps 743 mmHg 87%
19:00 0°C° 0 mm 5 mps 744 mmHg 88%
20:00 0°C° 0 mm 5 mps 744 mmHg 88%
21:00 0°C° 0 mm 4 mps 744 mmHg 89%
22:00 0°C° 0 mm 4 mps 744 mmHg 89%
23:00 0°C° 0 mm 4 mps 745 mmHg 89%
Show more